Terminal Aerodrome Forecast
Issued by NWS Salt Lake City, UT

Home | Current Version | Previous Version | Text Only | Print | Product List | Glossary On
Versions: 1 2 3 4 5 6 7 8 9 10 11 12 13 14 15 16 17 18 19 20 21 22 23 24 25 26 27 28 29 30 31 32 33 34 35 36 37 38 39 40 41 42 43 44 45 46 47 48 49 50
000
FTUS45 KSLC 210850 AAA
TAFSLC
TAF AMD
KSLC 210850Z 2109/2212 15010KT P6SM VCSH SCT040 BKN060
      TEMPO 2109/2112 6SM -RA SCT020 OVC030
     FM211200 16014KT 5SM -RA SCT020 OVC035
     FM212100 19014G24KT P6SM -RA SCT015 OVC030
     FM220300 29015G25KT P6SM VCSH SCT020 OVC040=

USA.gov is the U.S. government's official web portal to all federal, state and local government web resources and services.